Location: Arbon
(43.0005°N, 0.7472°E)
Time: 22:46:47
(UTC+00:00)

Altair - Pass Details

Date: 30 November 2020
Orbit: 1501 x 1682 km, 47.2° (Epoch: 26 January)

Event Time Altitude Azimuth Distance (km) Brightness Sun altitude
Rises 00:20:29 0° 287° (WNW) 4,659 - -67.5°
Reaches altitude 10° 00:23:33 10° 289° (WNW) 3,666 - -67.3°
Maximum altitude 00:32:46 78° 16° (NNE) 1,534 - -66.5°
Drops below altitude 10° 00:42:01 10° 103° (ESE) 3,676 - -65.7°
Sets 00:45:04 0° 105° (ESE) 4,672 - -65.4°
